When you browse on this site, cookies collect data to enhance your experience and personalize the content and advertising you see.
Visit our Privacy Policy to learn more. By continuing to use the site, you agree to this use of cookies and data.
  • In Österreich
  • Länderverzeichnis
  • Für 7 Tage
  • Wassertemperatur
  • Wetterkarte
  • News
  • Widgets
  • user-avatar
    Anmelden

    Stündliche Wetter Tecozautla

    Heute, 6 Dezember, Freitag

    Zeit Temperatur Niederschläge Wind Luftdruck Luftfeuchtigkeit
    00:00 +16°C° 0 mm 1 m/S 622 mmHg 77%
    01:00 +15°C° 0 mm 1 m/S 622 mmHg 77%
    02:00 +15°C° 0 mm 1 m/S 622 mmHg 78%
    03:00 +14°C° 0 mm 1 m/S 622 mmHg 77%
    04:00 +13°C° 0 mm 0 m/S 622 mmHg 77%
    05:00 +12°C° 0 mm 0 m/S 622 mmHg 77%
    06:00 +14°C° 0 mm 0 m/S 623 mmHg 67%
    07:00 +16°C° 0 mm 0 m/S 624 mmHg 58%
    08:00 +20°C° 0 mm 1 m/S 624 mmHg 48%
    09:00 +21°C° 0 mm 1 m/S 625 mmHg 41%
    10:00 +23°C° 0 mm 2 m/S 625 mmHg 33%
    11:00 +25°C° 0 mm 2 m/S 626 mmHg 25%
    12:00 +25°C° 0 mm 3 m/S 625 mmHg 24%
    13:00 +26°C° 0 mm 4 m/S 625 mmHg 23%
    14:00 +26°C° 0 mm 5 m/S 625 mmHg 22%
    15:00 +23°C° 0 mm 4 m/S 625 mmHg 30%
    16:00 +21°C° 0 mm 4 m/S 624 mmHg 39%
    17:00 +20°C° 0 mm 4 m/S 624 mmHg 47%
    18:00 +18°C° 0 mm 3 m/S 624 mmHg 58%
    19:00 +17°C° 0 mm 3 m/S 625 mmHg 69%
    20:00 +16°C° 0 mm 2 m/S 625 mmHg 81%
    21:00 +15°C° 0 mm 2 m/S 625 mmHg 83%
    22:00 +15°C° 0 mm 2 m/S 625 mmHg 86%
    23:00 +14°C° 0 mm 2 m/S 624 mmHg 89%

    Morgen, 7 Dezember, Samstag

    Zeit Temperatur Niederschläge Wind Luftdruck Luftfeuchtigkeit
    00:00 +13°C° 0 mm 2 m/S 624 mmHg 89%
    01:00 +13°C° 0 mm 1 m/S 624 mmHg 89%
    02:00 +12°C° 0 mm 1 m/S 624 mmHg 89%
    03:00 +12°C° 0 mm 1 m/S 624 mmHg 90%
    04:00 +11°C° 0 mm 1 m/S 623 mmHg 91%
    05:00 +11°C° 0 mm 1 m/S 623 mmHg 92%
    06:00 +12°C° 0 mm 1 m/S 624 mmHg 84%
    07:00 +13°C° 0 mm 1 m/S 625 mmHg 76%
    08:00 +14°C° 0 mm 1 m/S 625 mmHg 68%
    09:00 +16°C° 0 mm 1 m/S 625 mmHg 58%
    10:00 +18°C° 0 mm 2 m/S 626 mmHg 47%
    11:00 +20°C° 0 mm 2 m/S 626 mmHg 36%
    12:00 +21°C° 0 mm 2 m/S 625 mmHg 33%
    13:00 +23°C° 0 mm 2 m/S 625 mmHg 30%
    14:00 +24°C° 0 mm 3 m/S 625 mmHg 28%
    15:00 +22°C° 0 mm 3 m/S 624 mmHg 34%
    16:00 +20°C° 0 mm 2 m/S 624 mmHg 41%
    17:00 +19°C° 0 mm 2 m/S 624 mmHg 47%
    18:00 +18°C° 0 mm 2 m/S 624 mmHg 58%
    19:00 +17°C° 0 mm 2 m/S 624 mmHg 69%
    20:00 +15°C° 0 mm 2 m/S 624 mmHg 79%
    21:00 +15°C° 0 mm 1 m/S 624 mmHg 83%
    22:00 +15°C° 0 mm 1 m/S 623 mmHg 86%
    23:00 +14°C° 0 mm 1 m/S 623 mmHg 90%

    übermorgen, 8 Dezember, Sonntag

    Zeit Temperatur Niederschläge Wind Luftdruck Luftfeuchtigkeit
    00:00 +14°C° 0 mm 1 m/S 623 mmHg 89%
    01:00 +13°C° 0 mm 1 m/S 622 mmHg 88%
    02:00 +13°C° 0 mm 1 m/S 622 mmHg 87%
    03:00 +11°C° 0 mm 0 m/S 622 mmHg 86%
    04:00 +11°C° 0 mm 0 m/S 621 mmHg 84%
    05:00 +11°C° 0 mm 0 m/S 621 mmHg 83%
    06:00 +13°C° 0 mm 1 m/S 622 mmHg 75%
    07:00 +15°C° 0 mm 1 m/S 623 mmHg 66%
    08:00 +16°C° 0 mm 1 m/S 624 mmHg 58%
    09:00 +19°C° 0 mm 1 m/S 624 mmHg 49%
    10:00 +21°C° 0 mm 1 m/S 624 mmHg 40%
    11:00 +24°C° 0 mm 1 m/S 624 mmHg 32%
    12:00 +24°C° 0 mm 2 m/S 624 mmHg 29%
    13:00 +25°C° 0 mm 2 m/S 623 mmHg 25%
    14:00 +26°C° 0 mm 2 m/S 623 mmHg 22%
    15:00 +25°C° 0 mm 2 m/S 622 mmHg 27%
    16:00 +23°C° 0 mm 2 m/S 622 mmHg 31%
    17:00 +22°C° 0 mm 1 m/S 621 mmHg 36%
    18:00 +21°C° 0 mm 1 m/S 622 mmHg 42%
    19:00 +20°C° 0 mm 1 m/S 622 mmHg 48%
    20:00 +17°C° 0 mm 0 m/S 622 mmHg 54%
    21:00 +16°C° 0 mm 0 m/S 622 mmHg 54%
    22:00 +18°C° 0 mm 1 m/S 621 mmHg 53%
    23:00 +16°C° 0 mm 1 m/S 621 mmHg 53%

    9 Dezember, Montag

    Zeit Temperatur Niederschläge Wind Luftdruck Luftfeuchtigkeit
    00:00 +16°C° 0 mm 1 m/S 621 mmHg 52%
    01:00 +16°C° 0 mm 1 m/S 621 mmHg 51%
    02:00 +15°C° 0 mm 1 m/S 620 mmHg 49%
    03:00 +15°C° 0 mm 1 m/S 620 mmHg 48%
    04:00 +15°C° 0 mm 1 m/S 620 mmHg 46%
    05:00 +14°C° 0 mm 1 m/S 620 mmHg 45%
    06:00 +16°C° 0 mm 1 m/S 621 mmHg 41%
    07:00 +19°C° 0 mm 1 m/S 622 mmHg 37%
    08:00 +20°C° 0 mm 1 m/S 623 mmHg 32%
    09:00 +22°C° 0 mm 1 m/S 623 mmHg 30%
    10:00 +24°C° 0 mm 2 m/S 623 mmHg 28%
    11:00 +25°C° 0 mm 2 m/S 623 mmHg 25%
    12:00 +26°C° 0 mm 2 m/S 622 mmHg 23%
    13:00 +27°C° 0 mm 2 m/S 622 mmHg 22%
    14:00 +27°C° 0 mm 2 m/S 622 mmHg 20%
    15:00 +26°C° 0 mm 2 m/S 621 mmHg 23%
    16:00 +25°C° 0 mm 2 m/S 621 mmHg 27%
    17:00 +23°C° 0 mm 2 m/S 620 mmHg 30%
    18:00 +21°C° 0 mm 2 m/S 621 mmHg 33%
    19:00 +22°C° 0 mm 1 m/S 621 mmHg 36%
    20:00 +21°C° 0 mm 1 m/S 621 mmHg 39%
    21:00 +20°C° 0 mm 1 m/S 621 mmHg 42%
    22:00 +20°C° 0 mm 1 m/S 621 mmHg 45%
    23:00 +18°C° 0 mm 2 m/S 621 mmHg 49%

    10 Dezember, Dienstag

    Zeit Temperatur Niederschläge Wind Luftdruck Luftfeuchtigkeit
    00:00 +18°C° 0 mm 2 m/S 621 mmHg 52%
    01:00 +17°C° 0 mm 2 m/S 620 mmHg 56%
    02:00 +17°C° 0 mm 2 m/S 620 mmHg 59%
    03:00 +16°C° 0 mm 1 m/S 620 mmHg 62%
    04:00 +16°C° 0 mm 1 m/S 620 mmHg 65%
    05:00 +15°C° 0 mm 1 m/S 620 mmHg 68%
    06:00 +18°C° 0 mm 1 m/S 621 mmHg 63%
    07:00 +19°C° 0 mm 1 m/S 622 mmHg 58%
    08:00 +20°C° 0 mm 1 m/S 623 mmHg 52%
    09:00 +22°C° 0 mm 1 m/S 624 mmHg 47%
    10:00 +23°C° 0 mm 1 m/S 624 mmHg 41%
    11:00 +25°C° 0 mm 1 m/S 624 mmHg 35%
    12:00 +25°C° 0 mm 2 m/S 624 mmHg 36%
    13:00 +25°C° 0 mm 3 m/S 624 mmHg 37%
    14:00 +26°C° 0 mm 4 m/S 624 mmHg 38%
    15:00 +22°C° 0 mm 5 m/S 623 mmHg 51%
    16:00 +20°C° 0 mm 5 m/S 623 mmHg 65%
    17:00 +16°C° 0 mm 5 m/S 623 mmHg 78%
    18:00 +16°C° 0 mm 5 m/S 623 mmHg 78%
    19:00 +16°C° 0 mm 5 m/S 624 mmHg 78%
    20:00 +15°C° 0 mm 4 m/S 625 mmHg 78%
    21:00 +15°C° 0 mm 4 m/S 625 mmHg 78%
    22:00 +14°C° 0 mm 4 m/S 625 mmHg 79%
    23:00 +14°C° 0 mm 4 m/S 625 mmHg 80%

    11 Dezember, Mittwoch

    Zeit Temperatur Niederschläge Wind Luftdruck Luftfeuchtigkeit
    00:00 +14°C° 0 mm 4 m/S 624 mmHg 82%
    01:00 +13°C° 0 mm 3 m/S 624 mmHg 83%
    02:00 +13°C° 0 mm 3 m/S 624 mmHg 84%
    03:00 +13°C° 0 mm 3 m/S 624 mmHg 84%
    04:00 +12°C° 0 mm 3 m/S 624 mmHg 84%
    05:00 +12°C° 0 mm 3 m/S 624 mmHg 84%
    06:00 +13°C° 0 mm 3 m/S 624 mmHg 82%
    07:00 +13°C° 0 mm 3 m/S 625 mmHg 80%
    08:00 +13°C° 0 mm 3 m/S 625 mmHg 78%
    09:00 +14°C° 0 mm 3 m/S 625 mmHg 73%
    10:00 +15°C° 0 mm 4 m/S 625 mmHg 69%
    11:00 +17°C° 0 mm 4 m/S 625 mmHg 64%
    12:00 +18°C° 0 mm 4 m/S 625 mmHg 62%
    13:00 +18°C° 0 mm 4 m/S 624 mmHg 59%
    14:00 +19°C° 0 mm 4 m/S 624 mmHg 57%
    15:00 +18°C° 0 mm 3 m/S 623 mmHg 62%
    16:00 +17°C° 0 mm 3 m/S 623 mmHg 67%
    17:00 +16°C° 0 mm 3 m/S 623 mmHg 72%
    18:00 +15°C° 0 mm 2 m/S 623 mmHg 76%
    19:00 +14°C° 0 mm 2 m/S 623 mmHg 80%
    20:00 +14°C° 0 mm 2 m/S 624 mmHg 84%
    21:00 +14°C° 0 mm 1 m/S 624 mmHg 84%
    22:00 +14°C° 0 mm 1 m/S 624 mmHg 84%
    23:00 +13°C° 0 mm 1 m/S 624 mmHg 84%
    Mehr zeigen